Clermont County, Batavia, OH

9:45 PM EST on December 14, 2019 (GMT -0500)
Clermont County, Batavia

Weather History for KI69 - September, 2019

Change the Weather History Date:

Wednesday, September 25, 2019

  Actual Average (KLUK) Record (KLUK)
Temperature  
Mean Temperature 68 °F -  
Max Temperature 84 °F 73 °F 95 °F (2007)
Min Temperature 52 °F 52 °F 36 °F (1950)
Cooling Degree Days 3    
Growing Degree Days 18 (Base 50)    
Moisture  
Dew Point 52 °F    
Average Humidity 60    
Maximum Humidity 96    
Minimum Humidity 30    
Precipitation  
Precipitation 0.00 in - - ()
Sea Level Pressure  
Sea Level Pressure 29.90 in    
Wind  
Wind Speed 2 mph (SSW)    
Max Wind Speed 12 mph    
Max Gust Speed 17 mph    
Visibility 10 miles    
Events      
Averages and records for this station are not official NWS values.
T = Trace of Precipitation, MM = Missing Value Source: NWS Daily Summary

Daily Weather History Graph

Daily Weather History Graph

Search for Another Location

Airport or City:

Astronomy

Sep. 25, 2019 Rise Set
Actual Time 7:27 AM EDT 7:29 PM EDT
Civil Twilight 7:00 AM EDT 7:56 PM EDT
Nautical Twilight 6:29 AM EDT 8:27 PM EDT
Astronomical Twilight 5:57 AM EDT 8:58 PM EDT
Moon 3:22 AM EDT (9/25) 5:58 PM EDT (9/25)
Length of Visible Light 12h 55m
Length of Day
12h 02m
Waning Crescent, 14% of the Moon is Illuminated
Sep 25
Waning Crescent
Sep 28
New
Oct 5
First Quarter
Oct 13
Full
Oct 21
Last Quarter

Hourly Weather History & Observations

Time (EDT) Temp. Dew Point Humidity Pressure Visibility Wind Dir Wind Speed Gust Speed Precip Events Conditions
12:15 AM 58.1 °F 52.7 °F 82% 29.94 in 10.0 mi Calm Calm - N/A   Clear
12:39 AM 57.4 °F 51.6 °F 81% 29.93 in 10.0 mi South 3.5 mph - N/A   Clear
12:57 AM 59.0 °F 50.9 °F 74% 29.93 in 10.0 mi Calm Calm - N/A   Clear
1:15 AM 60.4 °F 50.0 °F 68% 29.93 in 10.0 mi Calm Calm - N/A   Clear
1:36 AM 59.9 °F 50.0 °F 70% 29.92 in 10.0 mi South 3.5 mph - N/A   Clear
1:55 AM 56.8 °F 51.1 °F 81% 29.92 in 10.0 mi Calm Calm - N/A   Clear
2:19 AM 57.6 °F 50.4 °F 77% 29.93 in 10.0 mi Calm Calm - N/A   Clear
2:37 AM 57.6 °F 50.0 °F 76% 29.93 in 10.0 mi Calm Calm - N/A   Clear
2:55 AM 57.4 °F 50.4 °F 77% 29.93 in 10.0 mi Calm Calm - N/A   Clear
3:15 AM 56.7 °F 50.9 °F 81% 29.94 in 10.0 mi Calm Calm - N/A   Clear
3:35 AM 54.7 °F 50.9 °F 87% 29.93 in 10.0 mi Calm Calm - N/A   Clear
3:59 AM 54.3 °F 50.7 °F 88% 29.93 in 10.0 mi Calm Calm - N/A   Clear
4:17 AM 54.0 °F 51.1 °F 90% 29.93 in 10.0 mi Calm Calm - N/A   Clear
4:35 AM 53.1 °F 51.6 °F 95% 29.94 in 10.0 mi Calm Calm - N/A   Clear
4:55 AM 53.8 °F 50.9 °F 90% 29.94 in 10.0 mi Calm Calm - N/A   Clear
5:16 AM 52.7 °F 51.6 °F 96% 29.93 in 10.0 mi SE 3.5 mph - N/A   Clear
5:39 AM 53.2 °F 50.5 °F 91% 29.92 in 10.0 mi Calm Calm - N/A   Clear
5:57 AM 53.1 °F 50.9 °F 92% 29.92 in 10.0 mi Calm Calm - N/A   Clear
6:15 AM 54.3 °F 52.9 °F 95% 29.92 in 10.0 mi Calm Calm - N/A   Clear
6:35 AM 53.2 °F 51.6 °F 94% 29.93 in 10.0 mi Calm Calm - N/A   Clear
6:55 AM 53.2 °F 50.5 °F 91% 29.93 in 10.0 mi Calm Calm - N/A   Clear
7:19 AM 52.7 °F 50.4 °F 92% 29.94 in 10.0 mi Calm Calm - N/A   Clear
7:37 AM 53.2 °F 50.0 °F 89% 29.95 in 10.0 mi Calm Calm - N/A   Clear
7:55 AM 52.5 °F 50.9 °F 94% 29.94 in 10.0 mi Calm Calm - N/A   Clear
8:15 AM 53.4 °F 50.4 °F 89% 29.96 in 10.0 mi Calm Calm - N/A   Clear
8:35 AM 55.2 °F 52.5 °F 91% 29.96 in 10.0 mi SSE 3.5 mph - N/A   Clear
8:58 AM 58.8 °F 53.4 °F 82% 29.96 in 10.0 mi Calm Calm - N/A   Clear
9:17 AM 61.5 °F 53.8 °F 76% 29.96 in 10.0 mi Calm Calm - N/A   Clear
9:35 AM 64.8 °F 53.4 °F 67% 29.96 in 10.0 mi South 3.5 mph - N/A   Clear
9:55 AM 67.1 °F 52.3 °F 59% 29.95 in 10.0 mi SSW 3.5 mph - N/A   Clear
10:15 AM 68.9 °F 51.8 °F 54% 29.94 in 10.0 mi South 5.8 mph - N/A   Clear
10:38 AM 70.7 °F 51.8 °F 51% 29.94 in 10.0 mi SW 4.6 mph - N/A   Clear
10:56 AM 71.8 °F 50.5 °F 47% 29.94 in 10.0 mi SSW 9.2 mph 17.3 mph N/A   Clear
11:15 AM 72.5 °F 50.7 °F 46% 29.93 in 10.0 mi South 10.4 mph - N/A   Clear
11:35 AM 73.6 °F 51.1 °F 45% 29.93 in 10.0 mi SSW 6.9 mph - N/A   Clear
11:55 AM 75.2 °F 51.8 °F 44% 29.93 in 10.0 mi SSW 9.2 mph - N/A   Clear
12:36 PM 77.2 °F 51.3 °F 40% 29.92 in 10.0 mi South 6.9 mph - N/A   Scattered Clouds
12:56 PM 77.5 °F 50.4 °F 38% 29.91 in 10.0 mi SW 6.9 mph - N/A   Scattered Clouds
1:15 PM 78.8 °F 50.2 °F 37% 29.91 in 10.0 mi WSW 8.1 mph - N/A   Clear
1:58 PM 79.5 °F 50.7 °F 36% 29.88 in 10.0 mi South 8.1 mph - N/A   Clear
2:16 PM 81.0 °F 51.4 °F 36% 29.87 in 10.0 mi SW 5.8 mph 16.1 mph N/A   Clear
2:35 PM 80.4 °F 51.6 °F 37% 29.87 in 10.0 mi South 11.5 mph - N/A   Clear
2:56 PM 82.0 °F 52.2 °F 35% 29.86 in 10.0 mi SSW 4.6 mph - N/A   Clear
3:15 PM 83.3 °F 50.4 °F 32% 29.85 in 10.0 mi SW 10.4 mph 16.1 mph N/A   Clear
3:38 PM 82.2 °F 50.2 °F 33% 29.84 in 10.0 mi SW 6.9 mph - N/A   Clear
3:56 PM 82.9 °F 49.3 °F 31% 29.84 in 10.0 mi WSW 11.5 mph - N/A   Clear
4:15 PM 83.1 °F 48.2 °F 30% 29.84 in 10.0 mi SSW 6.9 mph - N/A   Clear
4:35 PM 83.1 °F 49.1 °F 31% 29.84 in 10.0 mi South 4.6 mph - N/A   Clear
4:55 PM 83.8 °F 50.7 °F 32% 29.84 in 10.0 mi SSW 4.6 mph - N/A   Clear
5:18 PM 84.4 °F 50.4 °F 31% 29.84 in 10.0 mi SW 11.5 mph - N/A   Clear
5:36 PM 84.2 °F 50.4 °F 31% 29.84 in 10.0 mi SW 8.1 mph - N/A   Clear
5:55 PM 84.2 °F 50.5 °F 31% 29.83 in 10.0 mi SSW 8.1 mph - N/A   Clear
6:15 PM 83.3 °F 52.2 °F 34% 29.83 in 10.0 mi SW 6.9 mph - N/A   Clear
6:39 PM 81.7 °F 51.8 °F 35% 29.83 in 10.0 mi South 4.6 mph - N/A   Clear
6:58 PM 80.8 °F 52.0 °F 37% 29.83 in 10.0 mi SSW 5.8 mph - N/A   Clear
7:16 PM 80.2 °F 52.0 °F 37% 29.84 in 10.0 mi SSW 3.5 mph - N/A   Clear
7:35 PM 79.0 °F 52.5 °F 40% 29.84 in 10.0 mi SSW 3.5 mph - N/A   Clear
7:55 PM 77.2 °F 53.2 °F 43% 29.84 in 10.0 mi SSW 3.5 mph - N/A   Scattered Clouds
8:19 PM 76.8 °F 52.9 °F 43% 29.84 in 10.0 mi Calm Calm - N/A   Clear
8:38 PM 74.3 °F 55.0 °F 51% 29.84 in 10.0 mi Calm Calm - N/A   Scattered Clouds
8:56 PM 73.4 °F 55.2 °F 53% 29.85 in 10.0 mi Calm Calm - N/A   Scattered Clouds
9:15 PM 73.4 °F 54.0 °F 50% 29.85 in 10.0 mi Calm Calm - N/A   Clear
9:35 PM 71.4 °F 53.8 °F 54% 29.85 in 10.0 mi Calm Calm - N/A   Clear
9:59 PM 74.3 °F 53.1 °F 47% 29.85 in 10.0 mi SSW 4.6 mph - N/A   Clear
10:17 PM 74.3 °F 53.2 °F 48% 29.85 in 10.0 mi SW 4.6 mph - N/A   Clear
10:36 PM 73.9 °F 53.6 °F 49% 29.86 in 10.0 mi SW 3.5 mph - N/A   Clear
10:55 PM 73.2 °F 54.5 °F 52% 29.86 in 10.0 mi Calm Calm - N/A   Mostly Cloudy
11:15 PM 73.4 °F 54.9 °F 52% 29.86 in 10.0 mi SW 3.5 mph - N/A   Overcast
11:39 PM 73.8 °F 56.3 °F 54% 29.86 in 10.0 mi SW 4.6 mph - N/A   Overcast
11:57 PM 73.2 °F 57.2 °F 57% 29.86 in 10.0 mi WSW 3.5 mph - N/A   Overcast